Content
SEND FEEDBACK

Daily
Averages
Monthly
Summary
United States of America

WILMINGTON, NORTH CAROLINA


Home > North America > United States > North Carolina
Elevation: 21 meters     Latitude: 34 16N     Longitude: 077 54W

WEATHER
 
SELECT A DAY
Number of Records: 208,677;   Date Range: 1/1/95 - 7/22/14
 
SHARE

PRINT THIS DATA

[ ← Previous Day ]
WEATHER ALMANAC - 31 DECEMBER, 2013
[ Next Day → ]
[ °F ]   °C
Weather ElementAverageHighLow
Temperature8.7 °C13.3 °C (1:53 pm)3.9 °C (10:53 pm)
Dewpoint3.2 °C6.1 °C (1:53 am)-2.2 °C (3:53 pm)
Humidity70.7 %89 % (11:53 pm)37 % (1:53 pm)
Barometer1024.4 hPa1028.4 hPa (8:53 pm)1019.6 hPa (4:53 am)
Wind Speed9.5 km/h20.4 km/h (8:21 am)
Wind Gust31.5 km/h (9:42 am)
Weather ElementAverage
Visibility16.1 km
Wind DirectionSSW (190 °)

Weather ElementTotal
Precipitation---
Heating Degree Days9.8 (Base 18.3)
Averaged from 28 records on 31 December, 2013
WEATHER CONDITIONS BREAKOUT
WIND DIRECTION BREAKOUT
WEATHER BY HOUR - 31 DECEMBER, 2013
[ °F ]   °C
Local TimeTemperatureDewpointHumidityBarometerVisibilityWind DirectionWind SpeedGust SpeedPrecipitationEventsConditions
1:53 AM9.4 °C6.1 °C80 %1020 hPa16.1 kmCalmClear
2:53 AM8.3 °C6.1 °C86 %1020.7 hPa16.1 kmCalmClear
3:53 AM8.3 °C6.1 °C86 %1020.3 hPa16.1 kmCalmClear
4:53 AM8.3 °C5.6 °C83 %1019.6 hPa16.1 kmSW (220°)7.4 km/hPartly Cloudy
5:53 AM8.9 °C6.1 °C83 %1020.7 hPa16.1 kmWSW (240°)14.8 km/hClear
6:53 AM8.9 °C6.1 °C83 %1022 hPa16.1 kmWest (260°)14.8 km/hClear
7:22 AM9 °C6 °C82 %1022.4 hPa16.1 kmWest (270°)16.7 km/hMostly Cloudy
7:53 AM9.4 °C6.1 °C80 %1023 hPa16.1 kmWest (280°)16.7 km/hOvercast
8:10 AM8 °C6 °C87 %1023 hPa16.1 kmNNW (340°)18.5 km/hOvercast
8:13 AM8 °C5 °C81 %1023 hPa16.1 kmNorth (350°)16.7 km/hOvercast
8:21 AM8 °C5 °C81 %1023.4 hPa16.1 kmNorth (360°)20.4 km/hOvercast
8:53 AM8.3 °C4.4 °C77 %1024 hPa16.1 kmNorth (350°)13 km/hOvercast
9:42 AM9 °C3 °C66 %1025.4 hPa16.1 kmNorth (350°)20.4 km/h31.5 km/hScattered Clouds
9:53 AM8.9 °C2.2 °C63 %1025.1 hPa16.1 kmNNW (340°)16.7 km/h27.8 km/hClear
10:53 AM11.1 °C2.8 °C57 %1025.4 hPa16.1 kmNorth (10°)14.8 km/hClear
11:53 AM12.2 °C2.2 °C51 %1025.1 hPa16.1 kmNW (320°)13 km/hClear
12:53 PM12.8 °C1.1 °C45 %1024.7 hPa16.1 kmNorth (350°)11.1 km/hClear
1:53 PM13.3 °C-1.1 °C37 %1024.4 hPa16.1 kmNW (320°)20.4 km/hClear
2:53 PM12.8 °C-1.1 °C38 %1024.4 hPa16.1 kmNNW (330°)11.1 km/hClear
3:53 PM11.7 °C-2.2 °C38 %1025.4 hPa16.1 kmWNW (300°)13 km/hClear
4:53 PM10.6 °C-1.1 °C44 %1025.7 hPa16.1 kmNNW (330°)5.6 km/hClear
5:53 PM7.8 °C1.7 °C66 %1026.1 hPa16.1 kmCalmClear
6:53 PM6.7 °C2.2 °C73 %1027.1 hPa16.1 kmCalmClear
7:53 PM6.1 °C2.2 °C76 %1027.8 hPa16.1 kmCalmClear
8:53 PM5 °C1.7 °C79 %1028.4 hPa16.1 kmCalmClear
9:53 PM4.4 °C1.7 °C83 %1028.4 hPa16.1 kmCalmClear
10:53 PM3.9 °C1.7 °C86 %1028.4 hPa16.1 kmCalmClear
11:53 PM3.9 °C2.2 °C89 %1028.4 hPa16.1 kmCalmClear
Hourly data recorded from KILM, located 0 kilometers away from Wilmington, North Carolina







STORIES FROM OUR PARTNERS